Regional Weather Roundup
Issued by NWS

Home | Current Version | Previous Version | Text Only | Print | Product List | Glossary Off
Versions: 1 2 3 4 5 6 7 8 9 10 11 12 13 14 15 16 17 18 19 20 21 22 23 24 25 26 27 28 29 30 31 32 33 34 35 36 37 38 39 40 41 42 43 44 45 46 47 48 49 50

000
ASUS45 KSLC 261710
RWRUT

UTAH REGIONAL WEATHER ROUNDUP
NATIONAL WEATHER SERVICE SALT LAKE CITY UT
1100 AM MDT SAT MAY 26 2018

UTZ001>011-023>025-261800-

NORTHERN UTAH

CITY           SKY/WX    TMP DP  RH WIND       PRES   REMARKS
BRIGHAM CITY   SUNNY     75  19  12 SW10      29.85F
HILL AFB       SUNNY     73  26  17 SW9       29.86F
LOGAN          SUNNY     68  46  45 CALM      29.86F
OGDEN          SUNNY     76  23  14 S10       29.84F
SALT LAKE CITY MOSUNNY   78  22  12 S12       29.82F
TOOELE VALLEY  SUNNY     77  30  18 SW16      29.84S
WENDOVER       SUNNY     71  35  26 E9        29.85S
HEBER CITY       N/A     70  32  24 NW5       29.89F
WEST JORDAN    SUNNY     74  33  22 S12       29.86F

$$

UTZ011>015-024>027-261800-

CENTRAL/NORTHEAST UTAH

CITY           SKY/WX    TMP DP  RH WIND       PRES   REMARKS
PROVO AIRPORT  SUNNY     73  30  20 W5        29.86F
MOAB/CANYONLAN SUNNY     80  14   8 S9G21     29.86F
DELTA          SUNNY     72  19  14 SW13      29.87F
PRICE          SUNNY     72  12  10 S8        29.95F
ROOSEVELT      SUNNY     75  21  13 E3        29.92F
VERNAL         SUNNY     78  17  10 S9        29.91F

$$

UTZ013>016-019>022-027-261800-

SOUTHERN UTAH

CITY           SKY/WX    TMP DP  RH WIND       PRES   REMARKS
BRYCE CANYON   SUNNY     62  16  16 S26G36    30.05S
CEDAR CITY     SUNNY     69  17  13 SW14G21   29.91F
MILFORD        SUNNY     70  19  14 S14G23    29.88F
ST GEORGE      SUNNY     75  23  14 S3        29.84S
HANKSVILLE     SUNNY     81  16   9 W10G24    29.88F
BLANDING         N/A     75  21  13 SE15      30.08F

$$

REGIONAL REPORTS     COLORADO/ARIZONA

CITY           SKY/WX    TMP DP  RH WIND       PRES   REMARKS
CRAIG, CO      SUNNY     76  31  19 CALM      30.00F
GRAND JUNCTION SUNNY     82  17   9 S14G23    29.91F
RIFLE, CO      SUNNY     82  13   7 SE10G20   29.96F
MONTROSE, CO   SUNNY     79  13   8 E9        29.98F
CORTEZ, CO     MOSUNNY   78  22  12 SE17      30.04F
COLORADO CITY    N/A     72  25  17 S7        29.97S
PAGE, AZ       SUNNY     79  18  10 SE10G18   29.88F
GRAND CANYON   SUNNY     66  23  19 SW15G28   30.03F
KINGMAN, AZ      N/A    N/A N/A N/A MISG      29.89F
FLAGSTAFF, AZ  SUNNY     63  21  20 SW23G37   30.06S

$$

REGIONAL REPORTS    NEVADA/IDAHO/WYOMING

CITY           SKY/WX    TMP DP  RH WIND       PRES   REMARKS
LAS VEGAS, NV  SUNNY     71  37  28 S10       29.84R
ELY, NY        SUNNY     60  22  23 SE6       29.94F
ELKO, NV       CLOUDY    61  41  47 W10       29.92F
POCATELLO, ID  SUNNY     65  48  54 W10       29.91F
BURLEY, ID     SUNNY     65  47  52 W12       29.88F
FORT BRIDGER,    N/A     70  23  17 CALM      30.00F
EVANSTON, WY   SUNNY     66  30  26 W6        29.98F
ROCK SPRINGS,  SUNNY     74  14  10 S20G28    29.97F

$$



USA.gov is the U.S. government's official web portal to all federal, state and local government web resources and services.